N2611 KCJR-KDCA

Flight info

Callsign N2611
Flight time 0h 19m
Altitude VFR/025
Route ROUTE 5
Aircraft

Departure

Time 2026-05-05 19:24
Airport Culpeper Regional Airport (KCJR)

Arrival

Time 2026-05-05 19:44
Airport Ronald Reagan Washington National Airport (KDCA)
Time Latitude Longitude Altitude Speed Heading
2026-05-05 19:24 38.54993 -77.80849 984 ft 97 kts 70°
2026-05-05 19:24 38.55282 -77.80083 998 ft 96 kts 70°
2026-05-05 19:25 38.55601 -77.79327 991 ft 97 kts 69°
2026-05-05 19:25 38.55918 -77.78584 983 ft 93 kts 68°
2026-05-05 19:25 38.56204 -77.77860 995 ft 90 kts 69°
2026-05-05 19:25 38.56498 -77.77155 996 ft 92 kts 69°
2026-05-05 19:26 38.56814 -77.76423 991 ft 93 kts 69°
2026-05-05 19:26 38.57125 -77.75698 992 ft 94 kts 69°
2026-05-05 19:26 38.57451 -77.74972 981 ft 94 kts 69°
2026-05-05 19:26 38.57776 -77.74234 968 ft 96 kts 70°
2026-05-05 19:27 38.58096 -77.73501 974 ft 96 kts 70°
2026-05-05 19:27 38.58430 -77.72770 968 ft 96 kts 70°
2026-05-05 19:27 38.58777 -77.72039 965 ft 95 kts 69°
2026-05-05 19:27 38.59099 -77.71318 978 ft 93 kts 70°
2026-05-05 19:28 38.59415 -77.70603 984 ft 92 kts 69°
2026-05-05 19:28 38.59719 -77.69903 988 ft 91 kts 70°
2026-05-05 19:28 38.60042 -77.69188 982 ft 93 kts 69°
2026-05-05 19:28 38.60364 -77.68468 985 ft 92 kts 69°
2026-05-05 19:29 38.60676 -77.67757 985 ft 92 kts 70°
2026-05-05 19:29 38.60996 -77.67043 984 ft 93 kts 70°
2026-05-05 19:29 38.61315 -77.66326 979 ft 93 kts 70°
2026-05-05 19:29 38.61631 -77.65600 1021 ft 93 kts 71°
2026-05-05 19:30 38.61951 -77.64840 1123 ft 101 kts 71°
2026-05-05 19:30 38.62310 -77.63982 1124 ft 113 kts 71°
2026-05-05 19:30 38.62711 -77.63091 1114 ft 119 kts 70°
2026-05-05 19:30 38.63114 -77.62160 1123 ft 118 kts 70°
2026-05-05 19:31 38.63493 -77.61234 1125 ft 116 kts 70°
2026-05-05 19:31 38.63856 -77.60320 1123 ft 112 kts 71°
2026-05-05 19:31 38.64212 -77.59421 1112 ft 115 kts 71°
2026-05-05 19:31 38.64608 -77.58392 1111 ft 139 kts 71°
2026-05-05 19:32 38.65041 -77.57216 1081 ft 149 kts 70°
2026-05-05 19:32 38.65472 -77.55995 1056 ft 152 kts 71°
2026-05-05 19:32 38.65930 -77.54750 1036 ft 160 kts 71°
2026-05-05 19:32 38.66396 -77.53449 1009 ft 159 kts 70°
2026-05-05 19:33 38.66847 -77.52173 1001 ft 157 kts 71°
2026-05-05 19:33 38.67315 -77.50890 1009 ft 161 kts 70°
2026-05-05 19:33 38.67775 -77.49584 991 ft 161 kts 72°
2026-05-05 19:33 38.68246 -77.48299 436 ft 144 kts 71°
2026-05-05 19:34 38.68728 -77.47114 699 ft 144 kts 69°
2026-05-05 19:34 38.69171 -77.46029 863 ft 138 kts 68°
2026-05-05 19:34 38.69589 -77.44953 997 ft 132 kts 69°
2026-05-05 19:35 38.70384 -77.42888 1326 ft 129 kts 71°
2026-05-05 19:35 38.70787 -77.41858 1414 ft 131 kts 68°
2026-05-05 19:35 38.71183 -77.40778 1438 ft 135 kts 70°
2026-05-05 19:35 38.71593 -77.39651 1406 ft 144 kts 71°
2026-05-05 19:36 38.72030 -77.38484 670 ft 154 kts 68°
2026-05-05 19:36 38.72469 -77.37289 809 ft 143 kts 70°
2026-05-05 19:36 38.72839 -77.36148 992 ft 131 kts 77°
2026-05-05 19:36 38.73170 -77.35019 997 ft 138 kts 75°
2026-05-05 19:37 38.73553 -77.33924 1092 ft 132 kts 71°
2026-05-05 19:37 38.73956 -77.32893 1252 ft 128 kts 71°
2026-05-05 19:37 38.74352 -77.31877 1441 ft 128 kts 70°
2026-05-05 19:37 38.74762 -77.30861 1618 ft 129 kts 70°
2026-05-05 19:38 38.75175 -77.29846 1792 ft 127 kts 71°
2026-05-05 19:38 38.75563 -77.28814 1918 ft 132 kts 73°
2026-05-05 19:38 38.75923 -77.27710 1957 ft 139 kts 76°
2026-05-05 19:38 38.76307 -77.26549 1953 ft 143 kts 74°
2026-05-05 19:39 38.76685 -77.25370 1942 ft 145 kts 76°
2026-05-05 19:39 38.77080 -77.24161 1941 ft 148 kts 75°
2026-05-05 19:39 38.77450 -77.22938 1947 ft 147 kts 77°
2026-05-05 19:39 38.77776 -77.21694 1929 ft 147 kts 79°
2026-05-05 19:40 38.78077 -77.20443 1934 ft 146 kts 79°
2026-05-05 19:40 38.78360 -77.19209 1938 ft 143 kts 79°
2026-05-05 19:40 38.78676 -77.18000 1910 ft 143 kts 71°
2026-05-05 19:40 38.79243 -77.16969 1906 ft 143 kts 57°
2026-05-05 19:41 38.79879 -77.15969 1622 ft 155 kts 54°
2026-05-05 19:41 38.80594 -77.14836 923 ft 166 kts 56°
2026-05-05 19:41 38.81317 -77.13724 913 ft 157 kts 54°
2026-05-05 19:41 38.82006 -77.12643 933 ft 155 kts 55°
2026-05-05 19:42 38.82685 -77.11601 939 ft 150 kts 53°
2026-05-05 19:42 38.83293 -77.10543 819 ft 141 kts 60°
2026-05-05 19:42 38.83759 -77.09552 703 ft 121 kts 73°
2026-05-05 19:42 38.84101 -77.08632 618 ft 111 kts 78°
2026-05-05 19:43 38.84312 -77.07722 546 ft 103 kts 85°
2026-05-05 19:43 38.84487 -77.06855 517 ft 94 kts 88°
2026-05-05 19:43 38.84609 -77.06059 488 ft 91 kts 91°
2026-05-05 19:43 38.84721 -77.05250 430 ft 95 kts 96°
2026-05-05 19:44 38.84755 -77.04570 441 ft 45 kts 158°
2026-05-05 19:44 38.84625 -77.04337 267 ft 40 kts 205°
2026-05-05 19:44 38.84549 -77.04264 164 ft 2 kts 206°
2026-05-05 19:44 38.84510 -77.04272 35 ft 3 kts 191°
2026-05-05 19:45 38.84502 -77.04261 30 ft 2 kts 191°
2026-05-05 19:45 38.84491 -77.04256 28 ft 1 kts 191°
2026-05-05 19:45 38.84481 -77.04255 24 ft 1 kts 191°
2026-05-05 19:45 38.84479 -77.04254 21 ft 0 kts 191°